CAPE
971 937 835 813 867 866 752 575 275 129 52 15 10 0 0 0 0 0 0 0 0 0 0 0 0 0 0 0 0 0 0 0
1038 1061 1068 1020 883 731 532 318 138 103 40 49 5 0 0 0 0 0 0 0 0 0 0 0 0 0 0 0 0 0 0 0
956 994 1040 892 657 486 332 174 56 7 19 77 96 12 1 14 55 74 29 39 19 8 11 5 0 0 0 0 0 0 0 0
772 787 688 534 411 224 72 17 0 13 110 130 117 78 96 144 110 128 144 112 153 132 102 89 80 20 1 0 0 0 0 0
284 224 188 108 49 15 0 8 25 75 154 164 163 206 193 129 77 44 17 27 5 1 2 2 0 1 0 0 0 0 0 0
70 8 0 0 0 0 0 26 55 128 276 284 233 185 76 2 3 0 0 0 0 0 0 0 0 0 0 0 0 0 0 0
35 1 0 0 0 0 6 77 179 260 342 396 217 92 3 0 0 0 0 0 0 0 0 0 0 0 0 0 0 0 0 0
69 30 0 0 0 4 3 69 249 441 496 342 151 4 1 0 0 0 0 0 0 0 0 0 0 0 0 0 0 0 0 0
79 16 1 0 0 0 0 3 16 122 110 11 1 0 0 0 0 0 0 0 0 0 0 0 0 0 0 0 0 0 0 0
58 41 26 2 15 17 27 0 0 0 0 0 0 0 0 0 0 0 0 0 0 0 0 0 0 0 0 0 0 0 0 0
57 15 0 0 0 0 0 0 0 0 0 0 0 0 0 0 0 0 0 0 0 0 0 0 0 0 0 0 0 0 0 0
17 0 0 0 0 0 0 0 0 0 0 0 0 0 0 0 0 0 0 0 0 0 0 0 0 0 0 0 0 0 0 0
12 0 0 0 0 0 0 0 0 0 0 0 0 0 0 0 0 0 0 0 0 0 0 0 0 0 0 0 0 0 0 0
0 0 0 0 0 0 0 0 0 0 0 0 0 0 0 0 0 0 0 0 0 0 0 0 0 0 0 0 0 0 0 0
0 0 0 0 0 0 0 0 0 0 0 0 0 0 0 0 0 0 0 0 0 0 0 0 0 0 0 0 0 0 0 0
0 0 0 0 0 0 0 0 0 0 0 0 0 0 0 0 0 0 0 0 0 0 0 0 0 0 0 0 0 0 0 0
0 0 0 0 0 0 0 0 0 0 0 0 0 0 0 0 0 0 0 0 0 0 0 0 0 0 0 0 0 0 0 0
0 0 0 0 0 0 0 0 0 0 0 0 0 0 0 0 0 0 0 0 0 0 0 0 0 0 0 0 0 0 0 0
0 0 0 0 0 0 0 0 0 0 0 0 0 0 0 0 0 0 0 0 0 0 0 0 0 0 0 0 0 0 0 0
0 0 0 0 0 0 0 0 0 0 0 0 0 0 0 0 0 0 0 0 0 0 0 0 0 0 0 0 0 0 0 0
CIN
-2 -3 -8 -14 -14 -15 -43 -86 -161 -209 -252 -311 -235 0 0 0 0 0 0 0 0 0 0 0 0 0 0 0 0 0 0 0
-5 -1 -2 -16 -22 -63 -123 -172 -218 -235 -273 -242 -223 0 0 0 0 0 -8 -9 0 0 0 0 0 0 0 0 0 0 0 0
-42 -34 -22 -46 -96 -160 -202 -254 -309 -136 -295 -233 -211 -156 -19 -219 -193 -176 -186 -167 -171 -93 -142 -47 0 0 0 0 0 0 0 0
-83 -72 -101 -134 -189 -254 -318 -360 -28 -341 -246 -212 -189 -190 -178 -153 -168 -145 -130 -122 -105 -109 -115 -114 -117 -154 -12 0 0 0 0 0
-227 -248 -259 -304 -341 -359 0 -406 -353 -278 -204 -188 -165 -139 -150 -144 -156 -185 -198 -180 -26 -30 -27 -26 0 -23 -2 0 0 0 0 0
-307 -394 0 0 0 0 0 -313 -285 -221 -168 -150 -131 -115 -131 -182 -157 0 0 0 0 0 0 0 0 0 0 0 0 0 0 0
-292 -185 0 0 0 0 -212 -220 -166 -131 -120 -121 -149 -157 -51 0 0 0 0 0 0 0 0 0 0 0 0 0 0 0 0 0
-230 -269 0 0 -12 -197 -41 -189 -112 -88 -92 -110 -154 -70 -194 0 0 0 0 0 0 0 0 0 0 0 0 0 0 0 0 0
-219 -246 -108 0 0 0 0 -148 -188 -162 -156 -229 -15 0 0 0 0 0 0 0 0 0 0 0 0 0 0 0 0 0 0 0
-243 -207 -183 -210 -148 -117 -64 0 0 0 0 0 0 0 0 0 0 0 0 0 0 0 0 0 0 0 0 0 0 0 0 0
-223 -168 -77 0 0 0 0 0 0 0 0 0 0 0 0 0 0 0 0 0 0 0 0 0 0 0 0 0 0 0 0 0
-254 0 0 0 0 0 0 0 0 0 0 0 0 0 0 0 0 0 0 0 0 0 0 0 0 0 0 0 0 0 0 0
-255 0 0 0 0 0 0 0 0 0 0 0 0 0 0 0 0 0 0 0 0 0 0 0 0 0 0 0 0 0 0 0
0 0 0 0 0 0 0 0 0 0 0 0 0 0 0 0 0 0 0 0 0 0 0 0 0 0 0 0 0 0 0 0
0 0 0 0 0 0 0 0 0 0 0 0 0 0 0 0 0 0 0 0 0 0 0 0 0 0 0 0 0 0 0 0
0 0 0 0 0 0 0 0 0 0 0 0 0 0 0 0 0 0 0 0 0 0 0 0 0 0 0 0 0 0 0 0
0 0 0 0 0 0 0 0 0 0 0 0 0 0 0 0 0 0 0 0 0 0 0 0 0 0 0 0 0 0 0 -3
0 0 0 0 0 0 0 0 0 0 0 0 0 0 0 0 0 0 0 0 0 0 0 0 0 0 0 0 0 0 0 0
0 0 0 0 0 0 0 0 0 0 0 0 0 0 0 0 0 0 0 0 0 0 0 0 0 0 0 0 0 0 0 0
0 0 0 0 0 0 0 0 0 0 0 0 0 0 0 0 0 0 0 0 0 0 0 0 0 0 0 0 0 0 0 0
Wind_Speed
10 10 9 10 11 11 11 12 12 13 14 15 16 17 18 20 21 22 23 24 24 26 28 28 28 29 30 31 31 30 29 28
10 9 8 9 10 11 11 11 11 12 13 15 15 17 18 19 20 22 22 23 24 25 27 28 29 30 31 31 31 31 30 30
11 11 10 11 12 11 11 12 12 12 13 14 15 16 17 19 20 21 22 22 23 25 26 27 27 29 30 31 32 31 31 31
14 13 13 12 10 11 12 12 11 12 12 13 14 15 17 18 18 19 21 21 23 25 26 26 27 28 30 31 30 31 31 32
14 14 13 11 11 10 10 10 10 11 12 12 14 15 17 18 19 21 22 23 24 26 26 26 27 28 32 32 31 30 29 31
17 15 11 9 9 9 9 9 9 10 12 13 14 16 18 19 20 21 23 24 26 28 29 29 29 31 33 33 32 32 31 31
11 8 8 9 10 9 10 9 10 10 13 16 16 19 20 20 21 22 25 27 30 31 32 32 33 33 34 33 32 32 33 34
8 9 12 13 15 16 19 18 16 14 16 18 18 19 19 20 23 25 27 29 31 32 33 32 32 32 33 32 32 33 35 36
8 10 12 14 16 20 24 27 28 18 16 16 17 20 22 23 24 26 29 30 32 32 32 32 33 33 35 34 35 36 37 36
9 10 10 14 19 21 23 29 20 19 17 19 22 23 24 26 27 29 29 29 31 32 33 34 35 37 37 36 38 37 38 34
9 10 13 16 16 20 18 22 19 18 20 22 24 25 25 27 28 28 28 30 33 33 34 36 37 39 39 35 38 38 35 31
11 12 14 16 16 14 16 20 20 22 23 23 24 26 27 27 28 29 30 32 34 34 35 36 35 39 39 38 38 35 32 32
13 14 14 14 17 17 19 20 20 21 22 25 27 27 29 28 29 31 33 34 34 35 35 38 39 41 40 43 39 33 34 36
15 15 14 14 16 18 20 20 20 22 24 27 28 29 29 29 31 33 33 33 34 35 36 37 37 40 42 43 45 42 36 39
17 17 17 18 19 20 21 22 22 24 26 27 29 29 30 31 32 32 32 31 33 34 36 38 41 37 37 39 46 47 48 39
18 18 19 20 21 23 25 25 26 25 25 27 29 30 31 31 32 32 32 32 34 33 34 37 36 42 36 35 34 38 46 52
19 20 21 23 24 26 26 27 26 25 26 28 32 34 34 33 33 32 31 30 31 32 34 36 36 38 38 39 38 38 36 41
20 21 24 25 26 27 28 29 29 30 32 35 39 39 37 34 34 30 29 30 32 33 34 34 33 33 35 35 36 37 39 38
21 22 25 27 29 30 30 32 33 36 38 38 42 44 42 38 31 29 30 31 32 33 34 33 32 34 34 33 32 32 32 33
21 23 25 29 31 33 34 36 37 39 40 42 43 43 40 33 27 26 28 32 33 31 31 31 31 32 31 30 30 29 29 30
Wind_Direction
77 73 64 67 69 64 54 52 54 55 46 38 36 33 29 26 21 18 18 17 16 14 11 10 8 3 359 356 353 353 353 348
70 60 55 61 61 66 62 54 53 43 41 40 36 28 24 21 17 15 13 11 9 8 6 4 3 2 359 355 351 350 347 346
79 79 77 78 77 62 57 61 62 57 50 45 34 30 24 20 15 12 10 10 6 4 2 0 360 359 358 354 348 346 343 341
102 89 90 85 60 62 69 70 60 56 48 42 35 28 22 18 17 13 10 11 3 357 355 353 351 351 351 349 347 343 338 333
101 97 93 78 66 63 53 44 46 36 28 28 28 20 13 10 10 1 0 5 359 354 355 354 350 348 344 344 343 342 340 330
117 101 77 54 30 48 34 40 27 22 15 20 20 15 8 2 1 359 355 359 354 350 348 348 348 346 343 342 343 341 337 334
92 50 33 22 12 28 23 18 14 15 5 1 1 357 355 357 359 357 352 350 344 341 341 340 341 340 341 341 343 343 340 335
72 25 354 350 342 340 316 323 329 340 347 352 352 353 357 356 352 348 347 346 342 340 340 341 342 343 342 343 342 340 337 334
12 3 1 354 348 333 316 306 302 333 350 357 356 355 351 349 349 345 343 341 340 340 341 341 339 340 336 336 334 333 332 332
3 16 4 348 349 350 325 311 357 356 7 356 350 352 346 344 345 342 343 344 343 341 339 337 336 334 332 331 331 332 330 332
5 10 358 353 350 349 3 357 10 7 354 342 350 350 350 348 345 345 346 343 341 339 337 336 333 331 329 330 329 329 330 331
15 13 12 5 7 22 18 10 9 356 348 351 352 348 347 346 345 344 343 339 339 339 337 336 334 330 328 326 326 327 328 328
15 10 13 24 13 9 6 0 359 356 354 349 348 349 346 346 342 341 340 339 338 338 336 334 332 331 326 323 322 322 323 322
35 35 34 24 14 1 356 353 352 349 350 348 347 347 347 345 342 340 340 339 338 337 337 334 333 333 325 322 317 316 317 318
32 27 22 12 16 9 1 357 352 346 344 344 345 346 345 344 342 340 338 336 335 335 335 333 329 330 332 325 317 313 315 317
23 19 13 6 4 356 351 347 344 345 344 344 344 345 342 338 336 335 334 334 334 335 336 336 333 328 329 329 325 319 314 310
9 9 4 1 357 354 352 349 349 348 346 342 339 337 337 336 335 334 335 336 337 336 336 335 333 329 326 324 322 320 319 315
5 6 0 0 357 355 353 349 346 342 338 335 336 337 336 335 335 336 339 339 337 337 336 335 334 334 331 329 326 323 320 319
2 2 358 357 356 353 351 347 344 338 336 335 334 334 334 335 337 339 339 338 337 336 336 334 334 333 332 330 330 328 327 326
3 359 355 351 349 349 347 345 341 339 337 335 333 332 332 334 335 337 337 335 332 332 333 333 332 333 332 333 333 332 332 331